Regional Weather Roundup
Issued by NWS

Home | Current Version | Previous Version | Text Only | Print | Product List | Glossary On
Versions: 1 2 3 4 5 6 7 8 9 10 11 12 13 14 15 16 17 18 19 20 21 22 23 24 25 26 27 28 29 30 31 32 33 34 35 36 37 38 39 40 41 42 43 44 45 46 47 48 49 50
000
ASUS43 KMKX 301211
RWRWI

WISCONSIN REGIONAL WEATHER ROUNDUP
NATIONAL WEATHER SERVICE MILWAUKEE/SULLIVAN WI
700 AM CDT SAT AUG 30 2014

NOTE: "FAIR" INDICATES FEW OR NO CLOUDS BELOW 12,000 FEET WITH NO
SIGNIFICANT WEATHER AND/OR OBSTRUCTIONS TO VISIBILITY.

WIZ001-002-006>008-014>016-023>028-301300-
NORTHWEST WISCONSIN

CITY           SKY/WX    TMP DP  RH WIND       PRES   REMARKS
SUPERIOR ARPT  FOG       60  60 100 CALM      29.83R VSB 1/4
6HR MIN TEMP:  60; 6HR MAX TEMP:  62;

ASHLAND        CLOUDY    61  60  97 NE7       29.82R
6HR MIN TEMP:  61; 6HR MAX TEMP:  63; 6HR PCP:  0.04;

HAYWARD        LGT RAIN  62  61  96 N8        29.81R
6HR MIN TEMP:  62; 6HR MAX TEMP:  64; 6HR PCP:  0.27;

SIREN          CLOUDY    62  62  97 N5        29.81S FOG
6HR MIN TEMP:  62; 6HR MAX TEMP:  65; 6HR PCP:  0.02;

RICE LAKE      CLOUDY    64  63  96 CALM      29.79R
6HR MIN TEMP:  64; 6HR MAX TEMP:  65; 6HR PCP:  0.01;

LADYSMITH      DRIZZLE   65  64  97 NW6       29.80R
6HR MIN TEMP:  65; 6HR MAX TEMP:  65; 6HR PCP:  0.04;

EAU CLAIRE     CLOUDY    67  66  97 CALM      29.76S
6HR MIN TEMP:  66; 6HR MAX TEMP:  67; 6HR PCP:  0.17;

MENOMONIE      CLOUDY    66  66  99 CALM      29.78R
6HR MIN TEMP:  66; 6HR MAX TEMP:  67; 6HR PCP:  0.03;

NEW RICHMOND   CLOUDY    64  64  97 N8        29.80R
6HR MIN TEMP:  64; 6HR MAX TEMP:  65; 6HR PCP:  0.31;

OSCEOLA        CLOUDY    64  64 100 N5        29.83R
6HR MIN TEMP:  64; 6HR MAX TEMP:  67; 6HR PCP:  0.56;

$$

WIZ003>005-009-010-017-018-301300-
NORTH CENTRAL WISCONSIN

CITY           SKY/WX    TMP DP  RH WIND       PRES   REMARKS
WOODRUFF       LGT RAIN  64  63  95 CALM      29.79R
6HR MIN TEMP:  64; 6HR MAX TEMP:  65;

RHINELANDER    LGT RAIN  63  62  97 NW3       29.79R FOG
6HR MIN TEMP:  62; 6HR MAX TEMP:  63; 6HR PCP:  0.09;

EAGLE RIVER    LGT RAIN  63  63 100 CALM      29.78S VSB 1/4
LAND O LAKES   LGT RAIN  64  64 100 CALM      29.79S
6HR MIN TEMP:  64; 6HR MAX TEMP:  64; 6HR PCP:  0.04;

PHILLIPS       DRIZZLE   63  63 100 CALM      29.78R
6HR MIN TEMP:  62; 6HR MAX TEMP:  63; 6HR PCP:  0.13;

TOMAHAWK       FOG       63  62  97 CALM      29.79S VSB 1
6HR MIN TEMP:  63; 6HR MAX TEMP:  64; 6HR PCP:  0.15;

MEDFORD        CLOUDY    64  64 100 CALM      29.78S FOG
6HR MIN TEMP:  63; 6HR MAX TEMP:  64; 6HR PCP:  0.07;

MERRILL        CLOUDY    64  64 100 CALM      29.78R FOG
6HR MIN TEMP:  64; 6HR MAX TEMP:  65; 6HR PCP:  0.13;

$$

WIZ029-030-035-036-043>047-301300-
CENTRAL WISCONSIN

CITY           SKY/WX    TMP DP  RH WIND       PRES   REMARKS
WAUSAU         CLOUDY    65  64  97 N3        29.75S
6HR MIN TEMP:  65; 6HR MAX TEMP:  66; 6HR PCP:  0.84;

MOSINEE        DRIZZLE   64  64 100 N5        29.77S
MARSHFIELD     MOCLDY    65  64  97 NW3       29.77R
6HR MIN TEMP:  65; 6HR MAX TEMP:  67; 6HR PCP:  0.50;

STEVENS POINT  LGT RAIN  64  63  99 NW3       29.75S
6HR MIN TEMP:  64; 6HR MAX TEMP:  64; 6HR PCP:  1.16;

WAUPACA        CLOUDY    69  68  96 SW8       29.75S
6HR MIN TEMP:  68; 6HR MAX TEMP:  71; 6HR PCP:  0.79;

WAUTOMA        LGT RAIN  70  66  88 S8        29.76R
6HR MIN TEMP:  68; 6HR MAX TEMP:  70; 6HR PCP: TRACE;

WISC RAPIDS    CLOUDY    66  66 100 NW7       29.76R
6HR MIN TEMP:  66; 6HR MAX TEMP:  68; 6HR PCP:  0.80;

CAMP DOUGLAS   HVY RAIN  66  66 100 W7        29.76S VSB 3/4
6HR MIN TEMP:  67; 6HR MAX TEMP:  69; 6HR PCP:  0.21;

$$

WIZ011>013-019>022-031-037>040-048>050-301300-
NORTHEAST WISCONSIN

CITY           SKY/WX    TMP DP  RH WIND       PRES   REMARKS
ANTIGO         HVY RAIN  63  63 100 CALM      29.78S
6HR MIN TEMP:  62; 6HR MAX TEMP:  64; 6HR PCP:  0.71;

STURGEON BAY   CLOUDY    66  64  94 CALM      29.76F
6HR MIN TEMP:  66; 6HR MAX TEMP:  70;

GREEN BAY      CLOUDY    68  67  96 CALM      29.75S
6HR MIN TEMP:  67; 6HR MAX TEMP:  72; 6HR PCP:  0.57;

MANITOWOC      PTCLDY    69  68  96 S6        29.77S FOG
6HR MIN TEMP:  68; 6HR MAX TEMP:  72;

APPLETON       MOCLDY    70  68  94 S8        29.76R
CLINTONVILLE   CLOUDY    66  64  94 W6        29.75R FOG
OSHKOSH        PTCLDY    70  68  93 S9        29.75S FOG
6HR MIN TEMP:  70; 6HR MAX TEMP:  73; 6HR PCP:  0.07;

$$

WIZ032>034-041-042-053>061-301300-
SOUTHWEST WISCONSIN

CITY           SKY/WX    TMP DP  RH WIND       PRES   REMARKS
LA CROSSE      LGT RAIN  69  67  93 S5        29.75R FOG
6HR MIN TEMP:  68; 6HR MAX TEMP:  70; 6HR PCP:  0.56;

SPARTA         LGT RAIN  66  65  97 W3        29.77R
6HR MIN TEMP:  66; 6HR MAX TEMP:  67; 6HR PCP:  0.57;

VIROQUA        CLOUDY    66  66 100 SW3       29.78S
6HR MIN TEMP:  66; 6HR MAX TEMP:  67; 6HR PCP:  0.10;

BOSCOBEL       CLOUDY    71  67  87 SW5       29.77R
6HR MIN TEMP:  70; 6HR MAX TEMP:  72; 6HR PCP:  0.01;

PRAIRIE DU CHI CLOUDY    69  65  87 CALM      29.77R
6HR MIN TEMP:  69; 6HR MAX TEMP:  69; 6HR PCP:  0.01;

PLATTEVILLE    CLOUDY    69  68  96 SW10      29.80S
6HR MIN TEMP:  69; 6HR MAX TEMP:  72; 6HR PCP:  0.02;

$$

WIZ056-057-062-063-064-067-068-301300-
SOUTH CENTRAL WISCONSIN

CITY           SKY/WX    TMP DP  RH WIND       PRES   REMARKS
BARABOO/DELLS  CLOUDY    68  65  89 SW7       29.77S
LONE ROCK      MOCLDY    73  67  81 W3        29.77S
6HR MIN TEMP:  72; 6HR MAX TEMP:  76; 6HR PCP:  0.04;

WATERTOWN      MOCLDY    69  69  98 S5        29.79S
6HR MIN TEMP:  69; 6HR MAX TEMP:  72; 6HR PCP:  0.02;

MADISON        LGT RAIN  72  68  87 S8        29.77S
6HR MIN TEMP:  72; 6HR MAX TEMP:  74; 6HR PCP:  0.09;

MIDDLETON      CLOUDY    72  70  95 S5        29.78S
6HR MIN TEMP:  71; 6HR MAX TEMP:  73; 6HR PCP:  0.10;

MONROE         CLOUDY    68  66  94 S16       29.80S
JANESVILLE     PTCLDY    72  68  88 S8        29.79F
$$

WIZ051-052-058>065-066-070>072-301300-
SOUTHEAST WISCONSIN

CITY           SKY/WX    TMP DP  RH WIND       PRES   REMARKS
MILWAUKEE      MOCLDY    72  67  84 SW13      29.81F
6HR MIN TEMP:  72; 6HR MAX TEMP:  74; 6HR PCP: TRACE;

WAUKESHA       MOCLDY    68  66  94 S5        29.81F
MILWAUKEE/TIMM PTCLDY    70  64  83 SW8       29.80F
RACINE         MOCLDY    72  68  87 SW7       29.83S
6HR MIN TEMP:  72; 6HR MAX TEMP:  75;

BURLINGTON     MOCLDY    69  66  92 S8        29.81F
6HR MIN TEMP:  69; 6HR MAX TEMP:  71;

KENOSHA        PTCLDY    72  68  87 SW13G21   29.83R
6HR MIN TEMP:  71; 6HR MAX TEMP:  75;

FOND DU LAC    PTCLDY    70  67  90 S13       29.77R
6HR MIN TEMP:  70; 6HR MAX TEMP:  74; 6HR PCP:  0.15;

SHEBOYGAN      PTCLDY    70  67  90 SW8       29.78R
6HR MIN TEMP:  69; 6HR MAX TEMP:  72; 6HR PCP: TRACE;

WEST BEND      PTCLDY    70  64  83 S8        29.79F
JUNEAU         MOCLDY    69  67  93 S12       29.80S
6HR MIN TEMP:  69; 6HR MAX TEMP:  72; 6HR PCP:  0.01;

$$

LSZ147-162-301300-
LAKE SUPERIOR

STATION/POSITION TIME  TEMP    WIND        PRES    WAVE
                       AIR SEA DIR/SP/G            HT/PER
                 (UTC) (F)     (DEG/KT/KT) (MB)    (FT/S)
W MID LAKE BUOY  1150   57 58   20/  8/ 10 1009.3R   1
DEVILS ISLAND    1200   60      30/  4/  4 1009.9R
PORT WING        1140   62      20/  4/  5 1010.2R
SAXON HARBOR     1100   62      20/  9/ 12 1008.8
$$

LMZ867-665-643>646-301300-
LAKE MICHIGAN

STATION/POSITION TIME  TEMP    WIND        PRES    WAVE
                       AIR SEA DIR/SP/G            HT/PER
                 (UTC) (F)     (DEG/KT/KT) (MB)    (FT/S)
N MID LAKE BUOY  1150   66 65  180/  8/ 10 1007.8F   3/ 6
NORTHPORT PIER   1100   67     160/  5/  8 1008.1S
SISTER BAY       1141   67        CALM       N/A
ALGOMA LAKESHORE 1038             CALM       N/A
KEWAUNEE LAKESHO 1100   65     150/  1/  2 1006.8F
SHEBOYGAN LAKESH 1200   70 58  190/  9/ 10 1008.3R
ATWATER BUOY     1200   69     220/  8/ 12 1010.0F
MILWAUKEE LAKESH 1100   73     230/ 13/ 15   N/A
S MID LAKE BUOY  1150   71 69  200/ 14/ 16 1010.1R
KENOSHA   LAKESH 1200   74     230/ 11/ 18 1009.5S
$$

TC  - TEMPERATURE IN CELSIUS
VSB - VISIBILITY IN STATUTE MILES
WCI - WIND CHILL INDEX
HX  - HEAT INDEX



USA.gov is the U.S. government's official web portal to all federal, state and local government web resources and services.